Wellsville, NY

8:13 PM EDT on October 14, 2019 (GMT -0400)
Wellsville Municipal-Tarantine

Weather History for KELZ - August, 2019

Change the Weather History Date:

Thursday, August 29, 2019

  Actual Average (KDSV) Record (KDSV)
Temperature  
Mean Temperature 61 °F -  
Max Temperature 70 °F 80 °F 97 °F (1948)
Min Temperature 53 °F 57 °F 33 °F (1982)
Degree Days  
Heating Degree Days 4    
Growing Degree Days 11 (Base 50)    
Moisture  
Dew Point 52 °F    
Average Humidity 73    
Maximum Humidity 96    
Minimum Humidity 53    
Precipitation  
Precipitation 0.00 in - - ()
Sea Level Pressure  
Sea Level Pressure 30.00 in    
Wind  
Wind Speed 7 mph ()    
Max Wind Speed 14 mph    
Max Gust Speed 22 mph    
Visibility 10.0 miles    
Events      
Averages and records for this station are not official NWS values.
T = Trace of Precipitation, MM = Missing Value Source: Averaged Metar Reports

Daily Weather History Graph

Daily Weather History Graph

Search for Another Location

Airport or City:

Astronomy

Aug. 29, 2019 Rise Set
Actual Time 6:34 AM EDT 7:51 PM EDT
Civil Twilight 6:05 AM EDT 8:19 PM EDT
Nautical Twilight 5:30 AM EDT 8:54 PM EDT
Astronomical Twilight 4:53 AM EDT 9:31 PM EDT
Moon 5:14 AM EDT (8/29) 7:47 PM EDT (8/29)
Length of Visible Light 14h 14m
Length of Day
13h 16m
Waning Crescent, 1% of the Moon is Illuminated
Aug 29
Waning Crescent
Aug 30
New
Sep 5
First Quarter
Sep 14
Full
Sep 21
Last Quarter

Hourly Weather History & Observations

Time (EDT) Temp. Dew Point Humidity Pressure Visibility Wind Dir Wind Speed Gust Speed Precip Events Conditions
12:56 AM 55.9 °F 52.0 °F 87% 29.96 in 10.0 mi WSW 5.8 mph - N/A   Clear
1:56 AM 55.9 °F 52.0 °F 87% 29.95 in 10.0 mi WSW 5.8 mph - N/A   Clear
2:56 AM 57.0 °F 52.0 °F 83% 29.94 in 10.0 mi West 8.1 mph - N/A   Clear
3:56 AM 55.0 °F 53.1 °F 93% 29.96 in 10.0 mi West 8.1 mph - N/A   Clear
4:56 AM 54.0 °F 52.0 °F 93% 29.96 in 10.0 mi West 5.8 mph - N/A   Clear
5:56 AM 54.0 °F 52.0 °F 93% 29.98 in 10.0 mi WSW 5.8 mph - N/A   Clear
6:56 AM 53.1 °F 52.0 °F 96% 29.99 in 10.0 mi West 6.9 mph - N/A   Clear
7:56 AM 55.9 °F 53.1 °F 90% 30.01 in 10.0 mi West 6.9 mph - N/A   Clear
8:56 AM 57.9 °F 52.0 °F 81% 30.02 in 10.0 mi West 10.4 mph - N/A   Clear
9:56 AM 61.0 °F 52.0 °F 72% 30.03 in 10.0 mi West 12.7 mph - N/A   Clear
10:56 AM 64.0 °F 52.0 °F 65% 30.04 in 10.0 mi WNW 11.5 mph 21.9 mph N/A   Scattered Clouds
11:56 AM 64.0 °F 51.1 °F 63% 30.04 in 10.0 mi NW 13.8 mph - N/A   Mostly Cloudy
12:56 PM 64.9 °F 52.0 °F 63% 30.03 in 10.0 mi WNW 9.2 mph - N/A   Mostly Cloudy
1:56 PM 66.0 °F 52.0 °F 60% 30.02 in 10.0 mi West 11.5 mph - N/A   Scattered Clouds
2:56 PM 66.9 °F 51.1 °F 57% 30.01 in 10.0 mi WNW 10.4 mph - N/A   Scattered Clouds
3:56 PM 69.1 °F 51.1 °F 53% 30.00 in 10.0 mi WSW 8.1 mph - N/A   Partly Cloudy
4:56 PM 69.1 °F 52.0 °F 54% 29.99 in 10.0 mi WSW 6.9 mph - N/A   Partly Cloudy
5:56 PM 68.0 °F 52.0 °F 56% 29.99 in 10.0 mi West 10.4 mph - N/A   Partly Cloudy
6:56 PM 66.9 °F 54.0 °F 63% 30.00 in 10.0 mi Variable 4.6 mph - N/A   Clear
7:56 PM 63.0 °F 52.0 °F 67% 30.00 in 10.0 mi WSW 5.8 mph - N/A   Clear
8:56 PM 62.1 °F 52.0 °F 70% 30.01 in 10.0 mi SSW 5.8 mph - N/A   Clear
9:56 PM 62.1 °F 51.1 °F 67% 30.00 in 10.0 mi South 4.6 mph - N/A   Clear
10:56 PM 60.1 °F 51.1 °F 72% 30.00 in 10.0 mi SW 5.8 mph - N/A   Clear
11:56 PM 60.1 °F 51.1 °F 72% 29.99 in 10.0 mi WSW 6.9 mph - N/A   Clear